Time,TemperatureF,DewpointF,PressureIn,WindDirection,WindDirectionDegrees,WindSpeedMPH,WindSpeedGustMPH,Humidity,HourlyPrecipIn,Conditions,Clouds,dailyrainin,SoftwareType,DateUTC
2013-06-20 00:01:00,52.9,-2.1,30.11,West,270,0.7,1.1,1,0.00,,,0.00,WUHU216HW,2013-06-20 04:01:00,
2013-06-20 00:06:00,52.9,-2.1,30.12,WNW,293,0.0,1.1,1,0.00,,,0.00,WUHU216HW,2013-06-20 04:06:00,
2013-06-20 00:11:00,52.6,-2.5,30.12,WNW,293,0.0,1.1,1,0.00,,,0.00,WUHU216HW,2013-06-20 04:11:00,
2013-06-20 00:16:00,52.4,-2.6,30.12,West,270,0.4,0.4,1,0.00,,,0.00,WUHU216HW,2013-06-20 04:16:00,
2013-06-20 00:21:00,52.0,-2.9,30.12,NW,315,0.0,0.4,1,0.00,,,0.00,WUHU216HW,2013-06-20 04:21:00,
2013-06-20 00:26:00,51.7,-3.2,30.12,WNW,293,0.4,0.7,1,0.00,,,0.00,WUHU216HW,2013-06-20 04:26:00,
2013-06-20 00:31:00,51.5,-3.3,30.12,West,270,0.7,1.1,1,0.00,,,0.00,WUHU216HW,2013-06-20 04:31:00,
2013-06-20 00:36:00,51.5,-3.3,30.13,West,270,0.4,1.1,1,0.00,,,0.00,WUHU216HW,2013-06-20 04:36:00,
2013-06-20 00:41:00,51.5,-3.3,30.13,WNW,293,0.4,1.1,1,0.00,,,0.00,WUHU216HW,2013-06-20 04:41:00,
2013-06-20 00:46:00,51.3,-3.5,30.13,West,270,0.4,1.1,1,0.00,,,0.00,WUHU216HW,2013-06-20 04:46:00,
2013-06-20 00:51:00,51.1,-3.6,30.13,West,270,0.4,0.9,1,0.00,,,0.00,WUHU216HW,2013-06-20 04:51:00,
2013-06-20 00:56:00,51.1,-3.6,30.13,West,270,0.0,0.9,1,0.00,,,0.00,WUHU216HW,2013-06-20 04:56:00,
2013-06-20 01:01:00,51.1,-3.6,30.13,West,270,0.0,0.4,1,0.00,,,0.00,WUHU216HW,2013-06-20 05:01:00,
2013-06-20 01:06:00,50.9,-3.8,30.13,West,270,0.0,0.9,1,0.00,,,0.00,WUHU216HW,2013-06-20 05:06:00,
2013-06-20 01:11:00,50.8,-4.0,30.13,West,270,0.4,0.9,1,0.00,,,0.00,WUHU216HW,2013-06-20 05:11:00,
2013-06-20 01:16:00,50.6,-4.0,30.13,WSW,248,0.0,0.4,1,0.00,,,0.00,WUHU216HW,2013-06-20 05:16:00,
2013-06-20 01:21:00,50.2,-4.3,30.13,WSW,248,0.9,1.1,1,0.00,,,0.00,WUHU216HW,2013-06-20 05:21:00,
2013-06-20 01:26:00,50.0,-4.5,30.13,WNW,293,0.4,1.1,1,0.00,,,0.00,WUHU216HW,2013-06-20 05:26:00,
2013-06-20 01:31:00,49.9,-4.6,30.14,WNW,293,0.0,0.9,1,0.00,,,0.00,WUHU216HW,2013-06-20 05:31:00,
2013-06-20 01:36:00,49.7,-4.8,30.13,WSW,248,0.0,1.3,1,0.00,,,0.00,WUHU216HW,2013-06-20 05:36:00,
2013-06-20 01:41:00,49.7,-4.8,30.14,NNE,23,0.9,2.5,1,0.00,,,0.00,WUHU216HW,2013-06-20 05:41:00,
2013-06-20 01:46:00,49.5,-4.8,30.13,SW,225,1.1,2.5,1,0.00,,,0.00,WUHU216HW,2013-06-20 05:46:00,
2013-06-20 01:51:00,49.5,-4.8,30.13,NE,45,2.0,2.2,1,0.00,,,0.00,WUHU216HW,2013-06-20 05:51:00,
2013-06-20 01:56:00,49.5,-4.8,30.13,NE,45,0.0,3.4,1,0.00,,,0.00,WUHU216HW,2013-06-20 05:56:00,
2013-06-20 02:01:00,49.3,-5.0,30.13,West,270,0.0,3.4,1,0.00,,,0.00,WUHU216HW,2013-06-20 06:01:00,
2013-06-20 02:06:00,49.3,-5.0,30.13,West,270,0.0,1.8,1,0.00,,,0.00,WUHU216HW,2013-06-20 06:06:00,
2013-06-20 02:11:00,49.1,-5.1,30.13,WSW,248,0.7,1.3,1,0.00,,,0.00,WUHU216HW,2013-06-20 06:11:00,
2013-06-20 02:16:00,49.1,-5.1,30.14,WNW,293,0.4,1.3,1,0.00,,,0.00,WUHU216HW,2013-06-20 06:16:00,
2013-06-20 02:21:00,49.0,-5.2,30.13,WNW,293,0.2,0.7,1,0.00,,,0.00,WUHU216HW,2013-06-20 06:21:00,
2013-06-20 02:26:00,48.8,-5.4,30.14,West,270,0.9,1.1,1,0.00,,,0.00,WUHU216HW,2013-06-20 06:26:00,
2013-06-20 02:31:00,48.8,-5.4,30.14,WSW,248,0.4,1.1,1,0.00,,,0.00,WUHU216HW,2013-06-20 06:31:00,
2013-06-20 02:35:00,48.8,-5.4,30.14,West,270,0.0,1.1,1,0.00,,,0.00,WUHU216HW,2013-06-20 06:35:00,
2013-06-20 02:40:00,48.6,-5.5,30.14,West,270,0.7,0.9,1,0.00,,,0.00,WUHU216HW,2013-06-20 06:40:00,
2013-06-20 02:45:00,48.4,-5.7,30.14,West,270,0.4,0.9,1,0.00,,,0.00,WUHU216HW,2013-06-20 06:45:00,
2013-06-20 02:50:00,48.4,-5.7,30.14,West,270,0.4,0.9,1,0.00,,,0.00,WUHU216HW,2013-06-20 06:50:00,
2013-06-20 02:55:00,48.2,-5.8,30.14,West,270,0.4,0.9,1,0.00,,,0.00,WUHU216HW,2013-06-20 06:55:00,
2013-06-20 03:00:00,48.2,-5.8,30.14,West,270,0.7,0.9,1,0.00,,,0.00,WUHU216HW,2013-06-20 07:00:00,
2013-06-20 03:05:00,48.2,-5.8,30.14,WNW,293,0.7,0.9,1,0.00,,,0.00,WUHU216HW,2013-06-20 07:05:00,
2013-06-20 03:10:00,48.1,-5.9,30.15,West,270,0.7,1.1,1,0.00,,,0.00,WUHU216HW,2013-06-20 07:10:00,
2013-06-20 03:15:00,48.2,-5.8,30.15,West,270,1.1,1.1,1,0.00,,,0.00,WUHU216HW,2013-06-20 07:15:00,
2013-06-20 03:20:00,48.2,-5.8,30.15,WNW,293,0.9,1.6,1,0.00,,,0.00,WUHU216HW,2013-06-20 07:20:00,
2013-06-20 03:25:00,48.1,-5.9,30.15,WNW,293,1.3,1.8,1,0.00,,,0.00,WUHU216HW,2013-06-20 07:25:00,
2013-06-20 03:30:00,48.1,-5.9,30.15,WNW,293,1.1,1.8,1,0.00,,,0.00,WUHU216HW,2013-06-20 07:30:00,
2013-06-20 03:35:00,48.1,-5.9,30.15,WNW,293,1.1,1.3,1,0.00,,,0.00,WUHU216HW,2013-06-20 07:35:00,
2013-06-20 03:40:00,48.1,-5.9,30.16,WNW,293,1.1,1.1,1,0.00,,,0.00,WUHU216HW,2013-06-20 07:40:00,
2013-06-20 03:45:00,48.1,-5.9,30.15,WNW,293,0.9,1.1,1,0.00,,,0.00,WUHU216HW,2013-06-20 07:45:00,
2013-06-20 03:50:00,47.9,-6.0,30.15,West,270,1.1,1.3,1,0.00,,,0.00,WUHU216HW,2013-06-20 07:50:00,
2013-06-20 03:55:00,47.9,-6.0,30.15,West,270,1.1,1.8,1,0.00,,,0.00,WUHU216HW,2013-06-20 07:55:00,
2013-06-20 04:00:00,47.9,-6.0,30.16,WNW,293,0.0,1.8,1,0.00,,,0.00,WUHU216HW,2013-06-20 08:00:00,
2013-06-20 04:05:00,47.7,-6.2,30.16,WNW,293,1.1,1.1,1,0.00,,,0.00,WUHU216HW,2013-06-20 08:05:00,
2013-06-20 04:10:00,47.9,-6.0,30.16,WNW,293,0.7,1.1,1,0.00,,,0.00,WUHU216HW,2013-06-20 08:10:00,
2013-06-20 04:15:00,47.7,-6.2,30.16,West,270,0.4,1.1,1,0.00,,,0.00,WUHU216HW,2013-06-20 08:15:00,
2013-06-20 04:20:00,47.7,-6.2,30.16,West,270,0.7,1.1,1,0.00,,,0.00,WUHU216HW,2013-06-20 08:20:00,
2013-06-20 04:25:00,47.5,-6.3,30.17,West,270,0.4,0.9,1,0.00,,,0.00,WUHU216HW,2013-06-20 08:25:00,
2013-06-20 04:30:00,47.5,-6.3,30.17,WNW,293,0.0,0.7,1,0.00,,,0.00,WUHU216HW,2013-06-20 08:30:00,
2013-06-20 04:35:00,47.2,-6.7,30.16,WNW,293,0.7,0.7,1,0.00,,,0.00,WUHU216HW,2013-06-20 08:35:00,
2013-06-20 04:40:00,47.0,-6.7,30.16,WNW,293,0.0,0.7,1,0.00,,,0.00,WUHU216HW,2013-06-20 08:40:00,
2013-06-20 04:45:00,46.8,-6.9,30.17,West,270,0.9,0.9,1,0.00,,,0.00,WUHU216HW,2013-06-20 08:45:00,
2013-06-20 04:50:00,46.6,-7.0,30.17,West,270,0.9,1.1,1,0.00,,,0.00,WUHU216HW,2013-06-20 08:50:00,
2013-06-20 04:55:00,46.6,-7.0,30.17,West,270,0.7,1.1,1,0.00,,,0.00,WUHU216HW,2013-06-20 08:55:00,
2013-06-20 05:00:00,46.4,-7.2,30.17,WNW,293,0.7,1.1,1,0.00,,,0.00,WUHU216HW,2013-06-20 09:00:00,
2013-06-20 05:05:00,46.4,-7.2,30.18,West,270,0.9,1.1,1,0.00,,,0.00,WUHU216HW,2013-06-20 09:05:00,
2013-06-20 05:10:00,46.4,-7.2,30.18,West,270,0.4,1.1,1,0.00,,,0.00,WUHU216HW,2013-06-20 09:10:00,
2013-06-20 05:15:00,46.4,-7.2,30.18,West,270,0.2,1.1,1,0.00,,,0.00,WUHU216HW,2013-06-20 09:15:00,
2013-06-20 05:20:00,46.4,-7.2,30.18,WNW,293,0.4,0.7,1,0.00,,,0.00,WUHU216HW,2013-06-20 09:20:00,
2013-06-20 05:25:00,46.4,-7.2,30.18,WNW,293,0.4,1.1,1,0.00,,,0.00,WUHU216HW,2013-06-20 09:25:00,
2013-06-20 05:30:00,46.8,-6.9,30.18,WNW,293,0.9,1.1,1,0.00,,,0.00,WUHU216HW,2013-06-20 09:30:00,
2013-06-20 05:35:00,46.8,-6.9,30.18,WNW,293,0.7,0.9,1,0.00,,,0.00,WUHU216HW,2013-06-20 09:35:00,
2013-06-20 05:40:00,46.8,-6.9,30.19,West,270,0.4,1.1,1,0.00,,,0.00,WUHU216HW,2013-06-20 09:40:00,
2013-06-20 05:45:00,46.8,-6.9,30.19,WNW,293,0.7,1.1,1,0.00,,,0.00,WUHU216HW,2013-06-20 09:45:00,
2013-06-20 05:50:00,47.2,-6.7,30.19,NW,315,0.4,1.1,1,0.00,,,0.00,WUHU216HW,2013-06-20 09:50:00,
2013-06-20 05:55:00,47.2,-6.7,30.19,West,270,0.4,0.9,1,0.00,,,0.00,WUHU216HW,2013-06-20 09:55:00,
2013-06-20 06:00:00,47.2,-6.7,30.19,WNW,293,0.4,0.9,1,0.00,,,0.00,WUHU216HW,2013-06-20 10:00:00,
2013-06-20 06:05:00,47.5,-6.3,30.20,WNW,293,0.4,0.9,1,0.00,,,0.00,WUHU216HW,2013-06-20 10:05:00,
2013-06-20 06:10:00,47.7,-6.2,30.19,WNW,293,0.2,1.1,1,0.00,,,0.00,WUHU216HW,2013-06-20 10:10:00,
2013-06-20 06:15:00,47.7,-6.2,30.20,WNW,293,0.0,1.1,1,0.00,,,0.00,WUHU216HW,2013-06-20 10:15:00,
2013-06-20 06:20:00,47.9,-6.0,30.19,WSW,248,0.2,0.4,1,0.00,,,0.00,WUHU216HW,2013-06-20 10:20:00,
2013-06-20 06:25:00,48.1,-5.9,30.20,WNW,293,0.0,0.4,1,0.00,,,0.00,WUHU216HW,2013-06-20 10:25:00,
2013-06-20 06:30:00,48.4,-5.7,30.19,WSW,248,0.0,0.4,1,0.00,,,0.00,WUHU216HW,2013-06-20 10:30:00,
2013-06-20 06:35:00,48.6,-5.5,30.20,WSW,248,0.0,0.2,1,0.00,,,0.00,WUHU216HW,2013-06-20 10:35:00,
2013-06-20 06:40:00,49.0,-5.2,30.20,WSW,248,0.0,0.4,1,0.00,,,0.00,WUHU216HW,2013-06-20 10:40:00,
2013-06-20 06:45:00,49.9,-4.6,30.20,NW,315,0.2,0.4,1,0.00,,,0.00,WUHU216HW,2013-06-20 10:45:00,
2013-06-20 06:50:00,50.4,-4.2,30.21,NNW,338,0.0,0.2,1,0.00,,,0.00,WUHU216HW,2013-06-20 10:50:00,
2013-06-20 06:55:00,51.1,-3.6,30.21,NNW,338,0.0,0.2,1,0.00,,,0.00,WUHU216HW,2013-06-20 10:55:00,
2013-06-20 07:00:00,51.5,-3.3,30.21,SE,135,0.0,0.0,1,0.00,,,0.00,WUHU216HW,2013-06-20 11:00:00,
2013-06-20 07:05:00,51.8,-3.1,30.21,North,0,0.7,0.9,1,0.00,,,0.00,WUHU216HW,2013-06-20 11:05:00,
2013-06-20 07:10:00,52.0,-2.9,30.21,West,270,1.8,1.8,1,0.00,,,0.00,WUHU216HW,2013-06-20 11:10:00,
2013-06-20 07:15:00,52.6,-2.5,30.22,WNW,293,0.7,1.8,1,0.00,,,0.00,WUHU216HW,2013-06-20 11:15:00,
2013-06-20 07:20:00,52.9,-2.1,30.22,SSW,203,1.6,1.8,1,0.00,,,0.00,WUHU216HW,2013-06-20 11:20:00,
2013-06-20 07:25:00,53.5,-1.8,30.22,WSW,248,0.2,1.8,1,0.00,,,0.00,WUHU216HW,2013-06-20 11:25:00,
2013-06-20 07:30:00,53.8,-1.4,30.22,NNW,338,0.2,1.6,1,0.00,,,0.00,WUHU216HW,2013-06-20 11:30:00,
2013-06-20 07:35:00,54.5,-0.9,30.22,WSW,248,0.0,1.1,1,0.00,,,0.00,WUHU216HW,2013-06-20 11:35:00,
2013-06-20 07:40:00,55.1,-0.4,30.22,NW,315,0.4,1.1,1,0.00,,,0.00,WUHU216HW,2013-06-20 11:40:00,
2013-06-20 07:45:00,55.8,0.1,30.23,WNW,293,0.9,1.6,1,0.00,,,0.00,WUHU216HW,2013-06-20 11:45:00,
2013-06-20 07:50:00,56.3,0.5,30.22,NW,315,0.0,1.6,1,0.00,,,0.00,WUHU216HW,2013-06-20 11:50:00,
2013-06-20 07:55:00,56.7,0.7,30.23,NNW,338,1.1,1.1,1,0.00,,,0.00,WUHU216HW,2013-06-20 11:55:00,
2013-06-20 08:00:00,57.4,1.3,30.23,NW,315,0.4,1.8,1,0.00,,,0.00,WUHU216HW,2013-06-20 12:00:00,
2013-06-20 08:05:00,57.6,1.4,30.23,NW,315,0.4,1.8,1,0.00,,,0.00,WUHU216HW,2013-06-20 12:05:00,
2013-06-20 08:10:00,58.0,1.6,30.23,NW,315,0.4,1.1,1,0.00,,,0.00,WUHU216HW,2013-06-20 12:10:00,
2013-06-20 08:15:00,58.3,2.0,30.23,West,270,1.1,1.3,1,0.00,,,0.00,WUHU216HW,2013-06-20 12:15:00,
2013-06-20 08:20:00,58.9,2.3,30.23,ENE,68,0.4,1.3,1,0.00,,,0.00,WUHU216HW,2013-06-20 12:20:00,
2013-06-20 08:25:00,59.4,2.8,30.23,NNW,338,2.2,2.2,1,0.00,,,0.00,WUHU216HW,2013-06-20 12:25:00,
2013-06-20 08:30:00,59.4,2.8,30.23,West,270,2.2,3.4,1,0.00,,,0.00,WUHU216HW,2013-06-20 12:30:00,
2013-06-20 08:35:00,59.9,3.2,30.23,West,270,1.1,3.4,1,0.00,,,0.00,WUHU216HW,2013-06-20 12:35:00,
2013-06-20 08:40:00,60.3,3.5,30.23,WSW,248,0.9,2.2,1,0.00,,,0.00,WUHU216HW,2013-06-20 12:40:00,
2013-06-20 08:45:00,60.8,4.0,30.23,ESE,113,0.7,1.8,1,0.00,,,0.00,WUHU216HW,2013-06-20 12:45:00,
2013-06-20 08:50:00,61.2,4.2,30.23,East,90,2.5,2.5,1,0.00,,,0.00,WUHU216HW,2013-06-20 12:50:00,
2013-06-20 08:55:00,61.6,4.5,30.23,West,270,1.1,2.5,1,0.00,,,0.00,WUHU216HW,2013-06-20 12:55:00,
2013-06-20 09:00:00,62.3,5.1,30.23,East,90,1.8,2.7,1,0.00,,,0.00,WUHU216HW,2013-06-20 13:00:00,
2013-06-20 09:05:00,62.6,5.4,30.22,NE,45,0.4,2.7,1,0.00,,,0.00,WUHU216HW,2013-06-20 13:05:00,
2013-06-20 09:10:00,62.8,5.5,30.23,ESE,113,0.4,2.2,1,0.00,,,0.00,WUHU216HW,2013-06-20 13:10:00,
2013-06-20 09:15:00,63.4,6.0,30.23,ESE,113,1.6,2.2,1,0.00,,,0.00,WUHU216HW,2013-06-20 13:15:00,
2013-06-20 09:20:00,63.7,6.1,30.22,East,90,2.2,2.2,1,0.00,,,0.00,WUHU216HW,2013-06-20 13:20:00,
2013-06-20 09:25:00,64.3,6.6,30.23,SE,135,2.7,3.4,1,0.00,,,0.00,WUHU216HW,2013-06-20 13:25:00,
2013-06-20 09:30:00,64.8,6.9,30.22,SE,135,2.5,3.4,1,0.00,,,0.00,WUHU216HW,2013-06-20 13:30:00,
2013-06-20 09:35:00,65.9,7.8,30.22,SE,135,2.5,3.8,1,0.00,,,0.00,WUHU216HW,2013-06-20 13:35:00,
2013-06-20 09:40:00,68.0,9.5,30.22,SE,135,4.0,4.0,1,0.00,,,0.00,WUHU216HW,2013-06-20 13:40:00,
2013-06-20 09:45:00,70.0,11.0,30.22,SE,135,0.4,5.6,1,0.00,,,0.00,WUHU216HW,2013-06-20 13:45:00,
2013-06-20 09:50:00,72.0,12.5,30.22,ESE,113,2.2,5.6,1,0.00,,,0.00,WUHU216HW,2013-06-20 13:50:00,
2013-06-20 09:55:00,72.7,13.2,30.22,East,90,2.0,3.8,1,0.00,,,0.00,WUHU216HW,2013-06-20 13:55:00,
2013-06-20 10:00:00,75.2,14.9,30.22,ESE,113,3.4,4.7,1,0.00,,,0.00,WUHU216HW,2013-06-20 14:00:00,
2013-06-20 10:05:00,75.2,28.2,30.22,ENE,68,1.8,4.7,18,0.00,,,0.00,WUHU216HW,2013-06-20 14:05:00,
2013-06-20 10:09:00,76.3,15.9,30.22,SE,135,2.9,3.4,5,0.00,,,0.00,WUHU216HW,2013-06-20 14:09:00,
2013-06-20 10:14:00,76.3,15.9,30.22,South,180,1.8,2.9,10,0.00,,,0.00,WUHU216HW,2013-06-20 14:14:00,
2013-06-20 10:19:00,76.1,27.3,30.22,SSE,158,2.9,2.9,17,0.00,,,0.00,WUHU216HW,2013-06-20 14:19:00,
2013-06-20 10:24:00,76.1,34.3,30.22,West,270,2.2,2.9,22,0.00,,,0.00,WUHU216HW,2013-06-20 14:24:00,
2013-06-20 10:29:00,76.5,35.7,30.22,NNE,23,0.4,2.9,23,0.00,,,0.00,WUHU216HW,2013-06-20 14:29:00,
2013-06-20 10:34:00,76.5,37.7,30.22,ESE,113,3.8,3.8,25,0.00,,,0.00,WUHU216HW,2013-06-20 14:34:00,
2013-06-20 10:39:00,76.7,37.9,30.22,SSW,203,0.4,3.8,25,0.00,,,0.00,WUHU216HW,2013-06-20 14:39:00,
2013-06-20 10:44:00,76.5,38.7,30.22,East,90,1.1,3.8,26,0.00,,,0.00,WUHU216HW,2013-06-20 14:44:00,
2013-06-20 10:49:00,77.2,42.5,30.22,South,180,1.1,2.0,29,0.00,,,0.00,WUHU216HW,2013-06-20 14:49:00,
2013-06-20 10:54:00,77.6,39.6,30.22,SSW,203,4.3,4.3,26,0.00,,,0.00,WUHU216HW,2013-06-20 14:54:00,
2013-06-20 10:59:00,77.8,42.9,30.22,NNW,338,1.6,4.3,29,0.00,,,0.00,WUHU216HW,2013-06-20 14:59:00,
2013-06-20 11:04:00,77.9,44.1,30.22,East,90,2.2,4.7,30,0.00,,,0.00,WUHU216HW,2013-06-20 15:04:00,
2013-06-20 11:09:00,77.9,44.8,30.21,NE,45,0.2,4.7,31,0.00,,,0.00,WUHU216HW,2013-06-20 15:09:00,
2013-06-20 11:14:00,77.9,44.1,30.21,NE,45,3.6,3.6,30,0.00,,,0.00,WUHU216HW,2013-06-20 15:14:00,
2013-06-20 11:19:00,78.1,44.3,30.21,ESE,113,1.8,3.6,30,0.00,,,0.00,WUHU216HW,2013-06-20 15:19:00,
2013-06-20 11:24:00,79.0,46.5,30.21,West,270,3.6,3.6,32,0.00,,,0.00,WUHU216HW,2013-06-20 15:24:00,
2013-06-20 11:29:00,79.0,46.5,30.21,NNW,338,3.4,4.3,32,0.00,,,0.00,WUHU216HW,2013-06-20 15:29:00,
2013-06-20 11:34:00,78.3,45.9,30.21,SSE,158,2.0,4.3,32,0.00,,,0.00,WUHU216HW,2013-06-20 15:34:00,
2013-06-20 11:39:00,78.1,46.5,30.21,NW,315,1.6,3.4,33,0.00,,,0.00,WUHU216HW,2013-06-20 15:39:00,
2013-06-20 11:44:00,78.1,46.5,30.21,SW,225,1.1,2.0,33,0.00,,,0.00,WUHU216HW,2013-06-20 15:44:00,
2013-06-20 11:49:00,78.7,47.0,30.22,WNW,293,3.1,3.6,33,0.00,,,0.00,WUHU216HW,2013-06-20 15:49:00,
2013-06-20 11:54:00,79.0,47.4,30.21,WNW,293,2.0,4.7,33,0.00,,,0.00,WUHU216HW,2013-06-20 15:54:00,
2013-06-20 11:59:00,78.5,46.8,30.21,South,180,3.8,4.7,33,0.00,,,0.00,WUHU216HW,2013-06-20 15:59:00,
2013-06-20 12:04:00,78.1,46.5,30.21,SSW,203,4.0,4.7,33,0.00,,,0.00,WUHU216HW,2013-06-20 16:04:00,
2013-06-20 12:09:00,77.8,45.5,30.21,SW,225,1.1,4.0,32,0.00,,,0.00,WUHU216HW,2013-06-20 16:09:00,
2013-06-20 12:14:00,78.8,47.2,30.21,SE,135,4.3,4.3,33,0.00,,,0.00,WUHU216HW,2013-06-20 16:14:00,
2013-06-20 12:19:00,79.0,47.4,30.21,North,0,3.1,4.7,33,0.00,,,0.00,WUHU216HW,2013-06-20 16:19:00,
2013-06-20 12:24:00,78.5,46.8,30.21,WSW,248,1.1,5.1,33,0.00,,,0.00,WUHU216HW,2013-06-20 16:24:00,
2013-06-20 12:29:00,78.3,45.9,30.21,SW,225,4.5,5.1,32,0.00,,,0.00,WUHU216HW,2013-06-20 16:29:00,
2013-06-20 12:34:00,78.7,47.0,30.21,ESE,113,4.5,4.7,33,0.00,,,0.00,WUHU216HW,2013-06-20 16:34:00,
2013-06-20 12:39:00,79.0,47.4,30.21,SW,225,1.1,4.7,33,0.00,,,0.00,WUHU216HW,2013-06-20 16:39:00,
2013-06-20 12:44:00,79.4,47.6,30.21,NE,45,1.8,4.5,33,0.00,,,0.00,WUHU216HW,2013-06-20 16:44:00,
2013-06-20 12:49:00,79.4,47.6,30.21,SW,225,2.0,4.3,33,0.00,,,0.00,WUHU216HW,2013-06-20 16:49:00,
2013-06-20 12:54:00,79.2,47.4,30.21,West,270,2.5,8.5,33,0.00,,,0.00,WUHU216HW,2013-06-20 16:54:00,
2013-06-20 12:59:00,78.1,46.5,30.21,NNW,338,0.4,8.5,33,0.00,,,0.00,WUHU216HW,2013-06-20 16:59:00,
2013-06-20 13:04:00,77.9,47.2,30.21,West,270,1.8,4.0,34,0.00,,,0.00,WUHU216HW,2013-06-20 17:04:00,
2013-06-20 13:09:00,78.1,47.4,30.21,NNW,338,5.4,5.4,34,0.00,,,0.00,WUHU216HW,2013-06-20 17:09:00,
2013-06-20 13:14:00,78.3,47.4,30.21,West,270,6.5,6.5,34,0.00,,,0.00,WUHU216HW,2013-06-20 17:14:00,
2013-06-20 13:19:00,78.1,47.4,30.21,SSE,158,2.2,6.5,34,0.00,,,0.00,WUHU216HW,2013-06-20 17:19:00,
2013-06-20 13:24:00,78.3,47.4,30.21,SE,135,3.4,6.5,34,0.00,,,0.00,WUHU216HW,2013-06-20 17:24:00,
2013-06-20 13:29:00,78.3,47.4,30.20,WSW,248,2.7,5.6,34,0.00,,,0.00,WUHU216HW,2013-06-20 17:29:00,
2013-06-20 13:34:00,78.7,47.8,30.20,ESE,113,3.4,5.6,34,0.00,,,0.00,WUHU216HW,2013-06-20 17:34:00,
2013-06-20 13:39:00,78.7,47.0,30.20,WNW,293,4.0,4.7,33,0.00,,,0.00,WUHU216HW,2013-06-20 17:39:00,
2013-06-20 13:44:00,78.7,47.8,30.20,SW,225,2.5,4.7,34,0.00,,,0.00,WUHU216HW,2013-06-20 17:44:00,
2013-06-20 13:49:00,78.8,47.9,30.19,NW,315,2.5,4.0,34,0.00,,,0.00,WUHU216HW,2013-06-20 17:49:00,
2013-06-20 13:54:00,78.8,47.9,30.19,SSE,158,2.7,4.7,34,0.00,,,0.00,WUHU216HW,2013-06-20 17:54:00,
2013-06-20 13:59:00,78.8,47.9,30.19,WSW,248,2.2,4.7,34,0.00,,,0.00,WUHU216HW,2013-06-20 17:59:00,
2013-06-20 14:04:00,79.2,48.2,30.19,NNW,338,0.7,2.7,34,0.00,,,0.00,WUHU216HW,2013-06-20 18:04:00,
2013-06-20 14:09:00,79.2,48.2,30.19,South,180,2.5,5.1,34,0.00,,,0.00,WUHU216HW,2013-06-20 18:09:00,
2013-06-20 14:14:00,79.4,48.4,30.19,WSW,248,5.4,5.4,34,0.00,,,0.00,WUHU216HW,2013-06-20 18:14:00,
2013-06-20 14:19:00,79.2,47.4,30.19,WNW,293,4.0,6.3,33,0.00,,,0.00,WUHU216HW,2013-06-20 18:19:00,
2013-06-20 14:24:00,79.6,47.8,30.18,South,180,2.0,6.3,33,0.00,,,0.00,WUHU216HW,2013-06-20 18:24:00,
2013-06-20 14:29:00,79.6,48.6,30.19,East,90,2.5,4.0,34,0.00,,,0.00,WUHU216HW,2013-06-20 18:29:00,
2013-06-20 14:34:00,79.9,48.9,30.18,South,180,1.1,4.0,34,0.00,,,0.00,WUHU216HW,2013-06-20 18:34:00,
2013-06-20 14:39:00,80.3,49.2,30.18,SW,225,2.0,4.9,34,0.00,,,0.00,WUHU216HW,2013-06-20 18:39:00,
2013-06-20 14:44:00,80.5,49.4,30.19,SW,225,2.9,4.9,34,0.00,,,0.00,WUHU216HW,2013-06-20 18:44:00,
2013-06-20 14:49:00,80.8,49.7,30.19,SW,225,3.8,6.9,34,0.00,,,0.00,WUHU216HW,2013-06-20 18:49:00,
2013-06-20 14:54:00,80.6,48.8,30.19,NW,315,1.8,6.9,33,0.00,,,0.00,WUHU216HW,2013-06-20 18:54:00,
2013-06-20 14:59:00,80.6,49.5,30.18,ESE,113,2.2,3.8,34,0.00,,,0.00,WUHU216HW,2013-06-20 18:59:00,
2013-06-20 15:04:00,81.0,49.9,30.18,WSW,248,3.4,3.8,34,0.00,,,0.00,WUHU216HW,2013-06-20 19:04:00,
2013-06-20 15:09:00,81.5,50.3,30.18,SSE,158,6.3,6.3,34,0.00,,,0.00,WUHU216HW,2013-06-20 19:09:00,
2013-06-20 15:14:00,81.0,49.9,30.18,SSE,158,4.0,6.3,34,0.00,,,0.00,WUHU216HW,2013-06-20 19:14:00,
2013-06-20 15:19:00,80.8,49.7,30.18,East,90,4.7,6.3,34,0.00,,,0.00,WUHU216HW,2013-06-20 19:19:00,
2013-06-20 15:24:00,81.2,50.0,30.18,SE,135,3.8,4.7,34,0.00,,,0.00,WUHU216HW,2013-06-20 19:24:00,
2013-06-20 15:29:00,81.5,50.3,30.18,SE,135,3.4,4.7,34,0.00,,,0.00,WUHU216HW,2013-06-20 19:29:00,
2013-06-20 15:34:00,81.2,50.0,30.18,WSW,248,2.0,3.8,34,0.00,,,0.00,WUHU216HW,2013-06-20 19:34:00,
2013-06-20 15:39:00,80.8,50.5,30.18,ESE,113,3.4,3.4,35,0.00,,,0.00,WUHU216HW,2013-06-20 19:39:00,
2013-06-20 15:44:00,81.0,49.9,30.18,WNW,293,1.1,3.4,34,0.00,,,0.00,WUHU216HW,2013-06-20 19:44:00,
2013-06-20 15:49:00,81.0,49.9,30.18,East,90,6.5,6.5,34,0.00,,,0.00,WUHU216HW,2013-06-20 19:49:00,
2013-06-20 15:54:00,81.2,50.8,30.18,SSE,158,0.9,6.5,35,0.00,,,0.00,WUHU216HW,2013-06-20 19:54:00,
2013-06-20 15:59:00,80.8,50.5,30.18,ESE,113,1.1,6.5,35,0.00,,,0.00,WUHU216HW,2013-06-20 19:59:00,
2013-06-20 16:04:00,80.6,50.3,30.17,SE,135,5.4,5.4,35,0.00,,,0.00,WUHU216HW,2013-06-20 20:04:00,
2013-06-20 16:09:00,80.8,50.5,30.17,SSE,158,5.4,10.3,35,0.00,,,0.00,WUHU216HW,2013-06-20 20:09:00,
2013-06-20 16:14:00,81.0,50.6,30.17,WSW,248,1.3,10.3,35,0.00,,,0.00,WUHU216HW,2013-06-20 20:14:00,
2013-06-20 16:19:00,81.5,51.1,30.16,ESE,113,3.8,5.4,35,0.00,,,0.00,WUHU216HW,2013-06-20 20:19:00,
2013-06-20 16:24:00,81.7,51.2,30.16,SE,135,2.5,3.8,35,0.00,,,0.00,WUHU216HW,2013-06-20 20:24:00,
2013-06-20 16:29:00,82.3,51.7,30.17,SE,135,4.7,4.7,35,0.00,,,0.00,WUHU216HW,2013-06-20 20:29:00,
2013-06-20 16:34:00,81.4,51.0,30.17,SSW,203,2.9,4.7,35,0.00,,,0.00,WUHU216HW,2013-06-20 20:34:00,
2013-06-20 16:39:00,80.8,50.5,30.17,SSW,203,1.8,6.0,35,0.00,,,0.00,WUHU216HW,2013-06-20 20:39:00,
2013-06-20 16:44:00,80.8,51.2,30.17,SSE,158,1.1,6.0,36,0.00,,,0.00,WUHU216HW,2013-06-20 20:44:00,
2013-06-20 16:49:00,81.0,51.4,30.16,SSE,158,1.6,4.5,36,0.00,,,0.00,WUHU216HW,2013-06-20 20:49:00,
2013-06-20 16:54:00,81.0,51.4,30.16,SE,135,2.2,4.9,36,0.00,,,0.00,WUHU216HW,2013-06-20 20:54:00,
2013-06-20 16:59:00,80.5,50.1,30.16,SE,135,1.3,4.9,35,0.00,,,0.00,WUHU216HW,2013-06-20 20:59:00,
2013-06-20 17:04:00,80.6,51.8,30.16,ESE,113,1.8,3.4,37,0.00,,,0.00,WUHU216HW,2013-06-20 21:04:00,
2013-06-20 17:09:00,80.8,51.2,30.16,ESE,113,2.0,2.7,36,0.00,,,0.00,WUHU216HW,2013-06-20 21:09:00,
2013-06-20 17:14:00,81.2,51.6,30.16,ESE,113,0.7,2.0,36,0.00,,,0.00,WUHU216HW,2013-06-20 21:14:00,
2013-06-20 17:19:00,82.1,52.3,30.16,SSE,158,3.6,3.6,36,0.00,,,0.00,WUHU216HW,2013-06-20 21:19:00,
2013-06-20 17:24:00,82.4,51.8,30.16,East,90,4.0,8.1,35,0.00,,,0.00,WUHU216HW,2013-06-20 21:24:00,
2013-06-20 17:29:00,82.3,51.7,30.16,South,180,3.4,8.1,35,0.00,,,0.00,WUHU216HW,2013-06-20 21:29:00,
2013-06-20 17:34:00,82.4,51.8,30.16,ESE,113,2.7,4.0,35,0.00,,,0.00,WUHU216HW,2013-06-20 21:34:00,
2013-06-20 17:39:00,82.4,51.8,30.16,West,270,4.0,4.0,35,0.00,,,0.00,WUHU216HW,2013-06-20 21:39:00,
2013-06-20 17:44:00,82.1,51.6,30.16,South,180,4.3,4.3,35,0.00,,,0.00,WUHU216HW,2013-06-20 21:44:00,
2013-06-20 17:49:00,82.3,52.5,30.16,ESE,113,1.1,4.3,36,0.00,,,0.00,WUHU216HW,2013-06-20 21:49:00,
2013-06-20 17:54:00,82.3,52.5,30.16,East,90,4.9,6.5,36,0.00,,,0.00,WUHU216HW,2013-06-20 21:54:00,
2013-06-20 17:59:00,81.4,52.5,30.15,SE,135,2.7,6.5,37,0.00,,,0.00,WUHU216HW,2013-06-20 21:59:00,
2013-06-20 18:04:00,79.9,51.2,30.15,SE,135,2.7,9.6,37,0.00,,,0.00,WUHU216HW,2013-06-20 22:04:00,
2013-06-20 18:09:00,79.4,50.8,30.15,ESE,113,4.0,9.6,37,0.00,,,0.00,WUHU216HW,2013-06-20 22:09:00,
2013-06-20 18:14:00,79.4,50.8,30.16,SE,135,4.7,5.8,37,0.00,,,0.00,WUHU216HW,2013-06-20 22:14:00,
2013-06-20 18:19:00,79.2,50.6,30.16,SSE,158,5.6,7.2,37,0.00,,,0.00,WUHU216HW,2013-06-20 22:19:00,
2013-06-20 18:24:00,79.0,50.4,30.16,SE,135,4.7,7.2,37,0.00,,,0.00,WUHU216HW,2013-06-20 22:24:00,
2013-06-20 18:29:00,78.7,50.0,30.16,SSE,158,4.0,8.5,37,0.00,,,0.00,WUHU216HW,2013-06-20 22:29:00,
2013-06-20 18:34:00,78.7,50.0,30.16,SE,135,8.5,8.5,37,0.00,,,0.00,WUHU216HW,2013-06-20 22:34:00,
2013-06-20 18:39:00,78.1,49.6,30.16,SE,135,4.9,8.5,37,0.00,,,0.00,WUHU216HW,2013-06-20 22:39:00,
2013-06-20 18:44:00,77.4,49.0,30.16,SE,135,6.3,8.5,37,0.00,,,0.00,WUHU216HW,2013-06-20 22:44:00,
2013-06-20 18:49:00,75.6,47.3,30.16,ESE,113,9.6,9.6,37,0.00,,,0.00,WUHU216HW,2013-06-20 22:49:00,
2013-06-20 18:54:00,74.9,46.7,30.16,SE,135,4.0,9.8,37,0.00,,,0.00,WUHU216HW,2013-06-20 22:54:00,
2013-06-20 18:59:00,74.2,44.6,30.16,ESE,113,5.6,9.8,35,0.00,,,0.00,WUHU216HW,2013-06-20 22:59:00,
2013-06-20 19:04:00,73.8,43.5,30.16,SE,135,3.1,6.3,34,0.00,,,0.00,WUHU216HW,2013-06-20 23:04:00,
2013-06-20 19:09:00,73.3,42.3,30.16,East,90,3.1,6.5,33,0.00,,,0.00,WUHU216HW,2013-06-20 23:09:00,
2013-06-20 19:14:00,72.9,41.9,30.16,SE,135,6.3,6.9,33,0.00,,,0.00,WUHU216HW,2013-06-20 23:14:00,
2013-06-20 19:18:00,72.5,41.0,30.16,SE,135,2.5,6.9,32,0.00,,,0.00,WUHU216HW,2013-06-20 23:18:00,
2013-06-20 19:23:00,72.4,40.1,30.16,SE,135,6.3,6.9,31,0.00,,,0.00,WUHU216HW,2013-06-20 23:23:00,
2013-06-20 19:28:00,72.0,39.0,30.16,ESE,113,3.6,6.9,30,0.00,,,0.00,WUHU216HW,2013-06-20 23:28:00,
2013-06-20 19:33:00,71.6,36.6,30.16,SE,135,1.6,6.3,28,0.00,,,0.00,WUHU216HW,2013-06-20 23:33:00,
2013-06-20 19:38:00,71.3,34.3,30.16,SE,135,4.9,4.9,26,0.00,,,0.00,WUHU216HW,2013-06-20 23:38:00,
2013-06-20 19:43:00,71.1,32.1,30.16,ESE,113,3.4,4.9,24,0.00,,,0.00,WUHU216HW,2013-06-20 23:43:00,
2013-06-20 19:48:00,70.7,29.8,30.16,ESE,113,3.1,4.9,22,0.00,,,0.00,WUHU216HW,2013-06-20 23:48:00,
2013-06-20 19:53:00,70.6,28.6,30.16,ESE,113,2.5,3.6,21,0.00,,,0.00,WUHU216HW,2013-06-20 23:53:00,
2013-06-20 19:58:00,70.2,22.4,30.17,ESE,113,1.1,3.4,17,0.00,,,0.00,WUHU216HW,2013-06-20 23:58:00,
2013-06-20 20:03:00,69.8,15.7,30.17,ESE,113,2.5,4.0,13,0.00,,,0.00,WUHU216HW,2013-06-21 00:03:00,
2013-06-20 20:08:00,69.5,10.5,30.17,East,90,2.0,5.6,6,0.00,,,0.00,WUHU216HW,2013-06-21 00:08:00,
2013-06-20 20:13:00,69.1,10.3,30.17,ESE,113,0.9,5.6,3,0.00,,,0.00,WUHU216HW,2013-06-21 00:13:00,
2013-06-20 20:18:00,68.6,9.9,30.17,SE,135,2.2,2.7,1,0.00,,,0.00,WUHU216HW,2013-06-21 00:18:00,
2013-06-20 20:23:00,68.0,9.5,30.17,ESE,113,0.4,2.5,1,0.00,,,0.00,WUHU216HW,2013-06-21 00:23:00,
2013-06-20 20:28:00,67.7,9.3,30.17,ESE,113,1.6,2.2,1,0.00,,,0.00,WUHU216HW,2013-06-21 00:28:00,
2013-06-20 20:33:00,67.1,8.8,30.17,SE,135,1.1,2.5,1,0.00,,,0.00,WUHU216HW,2013-06-21 00:33:00,
2013-06-20 20:38:00,66.6,8.4,30.17,SSE,158,0.0,2.5,1,0.00,,,0.00,WUHU216HW,2013-06-21 00:38:00,
2013-06-20 20:43:00,66.1,7.9,30.17,East,90,2.5,2.5,1,0.00,,,0.00,WUHU216HW,2013-06-21 00:43:00,
2013-06-20 20:48:00,65.7,7.7,30.17,ESE,113,0.4,2.5,1,0.00,,,0.00,WUHU216HW,2013-06-21 00:48:00,
2013-06-20 20:53:00,65.3,7.4,30.17,ESE,113,0.0,2.7,1,0.00,,,0.00,WUHU216HW,2013-06-21 00:53:00,
2013-06-20 20:58:00,65.2,7.2,30.17,ESE,113,1.1,2.7,1,0.00,,,0.00,WUHU216HW,2013-06-21 00:58:00,
2013-06-20 21:03:00,64.8,6.9,30.17,ENE,68,1.3,1.3,1,0.00,,,0.00,WUHU216HW,2013-06-21 01:03:00,
2013-06-20 21:08:00,64.4,6.7,30.18,ESE,113,0.0,1.3,1,0.00,,,0.00,WUHU216HW,2013-06-21 01:08:00,
2013-06-20 21:13:00,63.7,6.1,30.18,South,180,0.9,1.3,1,0.00,,,0.00,WUHU216HW,2013-06-21 01:13:00,
2013-06-20 21:18:00,63.7,6.1,30.18,WNW,293,0.2,0.9,1,0.00,,,0.00,WUHU216HW,2013-06-21 01:18:00,
2013-06-20 21:23:00,63.2,5.8,30.18,SW,225,0.0,0.9,1,0.00,,,0.00,WUHU216HW,2013-06-21 01:23:00,
2013-06-20 21:28:00,62.6,5.4,30.18,SE,135,0.4,0.9,1,0.00,,,0.00,WUHU216HW,2013-06-21 01:28:00,
2013-06-20 21:33:00,62.5,5.2,30.18,South,180,0.7,1.1,1,0.00,,,0.00,WUHU216HW,2013-06-21 01:33:00,
2013-06-20 21:38:00,62.1,5.0,30.18,SSE,158,1.6,1.6,1,0.00,,,0.00,WUHU216HW,2013-06-21 01:38:00,
2013-06-20 21:43:00,61.9,4.9,30.18,ESE,113,0.9,1.6,1,0.00,,,0.00,WUHU216HW,2013-06-21 01:43:00,
2013-06-20 21:48:00,61.7,4.7,30.18,SSE,158,1.8,1.8,1,0.00,,,0.00,WUHU216HW,2013-06-21 01:48:00,
2013-06-20 21:53:00,61.6,4.5,30.18,NW,315,1.8,1.8,1,0.00,,,0.00,WUHU216HW,2013-06-21 01:53:00,
2013-06-20 21:58:00,61.4,4.4,30.18,SW,225,2.2,2.7,1,0.00,,,0.00,WUHU216HW,2013-06-21 01:58:00,
2013-06-20 22:03:00,61.2,4.2,30.18,South,180,1.1,2.7,1,0.00,,,0.00,WUHU216HW,2013-06-21 02:03:00,
2013-06-20 22:08:00,60.8,4.0,30.18,SSW,203,0.0,2.2,1,0.00,,,0.00,WUHU216HW,2013-06-21 02:08:00,
2013-06-20 22:13:00,60.7,3.8,30.18,SSW,203,0.2,1.1,1,0.00,,,0.00,WUHU216HW,2013-06-21 02:13:00,
2013-06-20 22:18:00,60.3,3.5,30.18,West,270,0.4,0.7,1,0.00,,,0.00,WUHU216HW,2013-06-21 02:18:00,
2013-06-20 22:23:00,59.9,3.2,30.18,SSE,158,0.0,1.8,1,0.00,,,0.00,WUHU216HW,2013-06-21 02:23:00,
2013-06-20 22:28:00,59.8,3.1,30.18,SSW,203,0.0,1.8,1,0.00,,,0.00,WUHU216HW,2013-06-21 02:28:00,
2013-06-20 22:33:00,59.4,2.8,30.18,SSW,203,0.0,0.4,1,0.00,,,0.00,WUHU216HW,2013-06-21 02:33:00,
2013-06-20 22:38:00,59.0,2.5,30.18,South,180,1.1,1.1,1,0.00,,,0.00,WUHU216HW,2013-06-21 02:38:00,
2013-06-20 22:43:00,58.7,2.3,30.19,NNW,338,0.0,1.1,1,0.00,,,0.00,WUHU216HW,2013-06-21 02:43:00,
2013-06-20 22:48:00,58.5,2.1,30.19,NNW,338,0.0,1.1,1,0.00,,,0.00,WUHU216HW,2013-06-21 02:48:00,
2013-06-20 22:53:00,58.3,2.0,30.19,SW,225,0.0,1.8,1,0.00,,,0.00,WUHU216HW,2013-06-21 02:53:00,
2013-06-20 22:58:00,58.0,1.6,30.19,SW,225,0.2,2.0,1,0.00,,,0.00,WUHU216HW,2013-06-21 02:58:00,
2013-06-20 23:03:00,58.0,1.6,30.19,West,270,0.7,2.0,1,0.00,,,0.00,WUHU216HW,2013-06-21 03:03:00,
2013-06-20 23:08:00,58.0,1.6,30.19,SSW,203,0.4,1.1,1,0.00,,,0.00,WUHU216HW,2013-06-21 03:08:00,
2013-06-20 23:13:00,58.0,1.6,30.19,SSW,203,0.9,2.2,1,0.00,,,0.00,WUHU216HW,2013-06-21 03:13:00,
2013-06-20 23:18:00,57.8,1.5,30.19,SSW,203,1.6,2.2,1,0.00,,,0.00,WUHU216HW,2013-06-21 03:18:00,
2013-06-20 23:23:00,57.8,1.5,30.19,WSW,248,0.4,1.6,1,0.00,,,0.00,WUHU216HW,2013-06-21 03:23:00,
2013-06-20 23:28:00,57.6,1.4,30.19,West,270,0.4,1.6,1,0.00,,,0.00,WUHU216HW,2013-06-21 03:28:00,
2013-06-20 23:33:00,57.6,1.4,30.19,South,180,3.4,3.4,1,0.00,,,0.00,WUHU216HW,2013-06-21 03:33:00,
2013-06-20 23:38:00,57.6,1.4,30.19,WSW,248,2.0,3.4,1,0.00,,,0.00,WUHU216HW,2013-06-21 03:38:00,
2013-06-20 23:43:00,57.6,1.4,30.19,SW,225,0.9,3.4,1,0.00,,,0.00,WUHU216HW,2013-06-21 03:43:00,
2013-06-20 23:48:00,57.6,1.4,30.19,West,270,0.4,2.0,1,0.00,,,0.00,WUHU216HW,2013-06-21 03:48:00,
2013-06-20 23:53:00,57.6,1.4,30.19,West,270,1.3,1.3,1,0.00,,,0.00,WUHU216HW,2013-06-21 03:53:00,
2013-06-20 23:58:00,57.6,1.4,30.19,WNW,293,0.2,1.3,1,0.00,,,0.00,WUHU216HW,2013-06-21 03:58:00,